Location: Coed Ely
(51.5661°N, 3.4150°W)
Time: 02:17:46
(UTC+00:00)

H-2A R/B - Pass Details

Date: 28 January 2021
Orbit: 577 x 655 km, 98.5° (Epoch: 24 February)

Event Time Altitude Azimuth Distance (km) Brightness Sun altitude
Rises 18:59:53 0° 7° (N) 2,958 5.4 -19.1°
Reaches altitude 10° 19:02:23 10° 355° (N) 2,032 4.7 -19.5°
Maximum altitude 19:06:02 26° 299° (WNW) 1,248 4.2 -20.0°
Drops below altitude 10° 19:09:35 10° 243° (WSW) 1,980 5.6 -20.6°
Sets 19:12:00 0° 231° (SW) 2,866 6.3 -21.0°
